Owensboro, KY

11:24 PM CDT on September 19, 2017 (GMT -0500)
Owensboro-Daviess County

Weather History for KOWB - October, 2012

Change the Weather History Date:

Friday, October 12, 2012

  Actual Average Record
Temperature  
Mean Temperature 60 °F -  
Max Temperature 68 °F 74 °F 88 °F (1961)
Min Temperature 51 °F 48 °F 31 °F (1967)
Degree Days  
Heating Degree Days 6    
Growing Degree Days 10 (Base 50)    
Moisture  
Dew Point 49 °F    
Average Humidity 79    
Maximum Humidity 93    
Minimum Humidity 49    
Precipitation  
Precipitation 0.08 in - - ()
Sea Level Pressure  
Sea Level Pressure 30.27 in    
Wind  
Wind Speed 4 mph (ESE)    
Max Wind Speed 10 mph    
Max Gust Speed -    
Visibility 8 miles    
Events Rain    
Averages and records for this station are not official NWS values.
T = Trace of Precipitation, MM = Missing Value Source: NWS Daily Summary

Daily Weather History Graph

Daily Weather History Graph

Search for Another Location

Airport or City:

Trip Planner

Search our weather history database for the weather conditions in past years. The results will help you decide how hot, cold, wet, or windy it might be!

Date:

Astronomy

Oct. 12, 2012 Rise Set
Actual Time 6:54 AM CDT 6:14 PM CDT
Civil Twilight 6:28 AM CDT 6:41 PM CDT
Nautical Twilight 5:57 AM CDT 7:11 PM CDT
Astronomical Twilight 5:27 AM CDT 7:41 PM CDT
Moon 3:40 AM CDT (10/12) 4:21 PM CDT (10/12)
Length of Visible Light 12h 12m
Length of Day
11h 20m
Waning Crescent, 10% of the Moon is Illuminated
Oct 12
Waning Crescent
Oct 15
New
Oct 21
First Quarter
Oct 29
Full
Nov 6
Last Quarter

Hourly Weather History & Observations

Time (CDT) Temp. Dew Point Humidity Pressure Visibility Wind Dir Wind Speed Gust Speed Precip Events Conditions
12:56 AM 52.9 °F 43.9 °F 71% 30.22 in 10.0 mi Calm Calm - N/A   Mostly Cloudy
1:31 AM 53.6 °F 46.4 °F 77% 30.21 in 2.5 mi South 6.9 mph - 0.07 in Rain Heavy Rain
1:46 AM 51.8 °F 46.4 °F 82% 30.22 in 10.0 mi SSW 5.8 mph - 0.08 in Rain Light Rain
1:56 AM 52.0 °F 47.8 °F 86% 30.22 in 10.0 mi SW 4.6 mph - 0.08 in Rain Light Rain
2:03 AM 51.8 °F 48.2 °F 88% 30.23 in 10.0 mi NNW 3.5 mph - 0.00 in Rain Light Rain
2:56 AM 52.0 °F 47.8 °F 86% 30.24 in 10.0 mi Calm Calm - 0.00 in Rain Light Rain
3:56 AM 52.9 °F 48.9 °F 86% 30.23 in 10.0 mi ENE 4.6 mph - 0.00 in   Overcast
4:56 AM 52.9 °F 50.0 °F 90% 30.23 in 10.0 mi NE 5.8 mph - 0.00 in Rain Light Rain
5:56 AM 52.9 °F 50.0 °F 90% 30.26 in 7.0 mi Calm Calm - N/A   Overcast
6:56 AM 52.9 °F 50.9 °F 93% 30.27 in 7.0 mi ESE 4.6 mph - N/A   Overcast
7:56 AM 54.0 °F 50.9 °F 89% 30.30 in 7.0 mi East 3.5 mph - N/A   Overcast
8:56 AM 54.9 °F 50.0 °F 84% 30.31 in 7.0 mi ENE 4.6 mph - N/A   Overcast
9:56 AM 56.8 °F 48.9 °F 75% 30.33 in 10.0 mi ESE 4.6 mph - N/A   Overcast
11:56 AM 63.0 °F 45.9 °F 54% 30.34 in 10.0 mi East 10.4 mph - 0.00 in   Mostly Cloudy
12:56 PM 65.8 °F 46.9 °F 50% 30.32 in 10.0 mi ESE 9.2 mph - N/A   Partly Cloudy
3:56 PM 68.9 °F 48.9 °F 49% 30.28 in 10.0 mi Calm Calm - N/A   Partly Cloudy
4:56 PM 66.9 °F 48.9 °F 52% 30.28 in 10.0 mi NE 3.5 mph - N/A   Scattered Clouds
6:56 PM 61.9 °F 50.9 °F 67% 30.26 in 10.0 mi ENE 4.6 mph - N/A   Clear
8:56 PM 55.9 °F 50.0 °F 80% 30.30 in 10.0 mi SE 3.5 mph - N/A   Clear
9:56 PM 54.0 °F 48.9 °F 83% 30.30 in 10.0 mi SSE 3.5 mph - N/A   Clear
10:45 PM 53.6 °F 50.0 °F 88% 30.29 in 1.8 mi ESE 4.6 mph - N/A   Clear
11:05 PM 53.6 °F 50.0 °F 88% 30.29 in 4.0 mi ESE 4.6 mph - N/A   Clear
11:42 PM 53.6 °F 50.0 °F 88% 30.28 in 1.2 mi ESE 4.6 mph - N/A   Clear
11:56 PM 52.9 °F 50.9 °F 93% 30.27 in 2.0 mi East 4.6 mph - N/A   Clear